sat.trackr.live / text

‹ back to catalog

UNKNOWN

NORAD 81405

UNKNOWN UNKNOWN UNKNOWN

§ Identity

Operator
Country
Launch date
Launch site
Launch vehicle
Mass (kg)
RCS (m²)

External: N2YO · Heavens-Above

§ Orbital elements

Epoch: 2026-09-14T09:11:39.288768Z

Period
103.63 min
Inclination
99.4490°
Eccentricity
0.0159447
Mean motion
13.89596879 rev/d
Perigee alt
813.5 km
Apogee alt
1,046.6 km
Semi-major
7,308.2 km
B*
8.8260e-4
RAAN
314.8088°
Arg perigee
205.7089°
Mean anomaly
153.6080°
Rev number
60,007

§ Raw data

UNKNOWN1 81405U          26257.38309362  .00001150  00000+0  88260-3 0  99972 81405  99.4490 314.8088 0159447 205.7089 153.6080 13.89596879600079

JSON: /api/v1/satellites/81405 · /tle

For live sub-satellite position, see the globe view (requires WebGL).

§ Visibility from observer

Set your observer location to see the next 7 days of passes ≥ 10°. The values pass through the URL so the page stays shareable.

No JS? Fill the form by hand. The geolocation button needs JavaScript.